Back to catalog

STARLINK-3792

AliveCommunicationsVLEO
NORAD 52339·PAYLOAD·🇺🇸 United States

Launched Apr 29, 2022 from Cape Canaveral Space Force Station

Loading…

Next Passes (next 24 hours)

TLE

FreshSource: CelesTrak SupGP

Epoch: Sep 14, 2026, 21:14 UTC

1 52339C 22045J   26257.88520833  .00738870  00000+0  25295-1 0  2577
2 52339  53.1596  77.6960 0001263  88.6057   8.8399 15.29316767    19

Track STARLINK-3792 in real time with AllMySat

Download on the App Store